Погода в Демяновска-Долине

Словакия     48°58′05″N   19°34′51″E
темп.,
°C
ветер,
м/с
пор.,
м/с
влажн.,
%
обл.,
%
осадки,
мм/ч
давл.,
гПа
погр.,
м
29 мая, вс
вс2923:00+3ссз118116 0.0 101714
02:00+2вюв11887 0.0 101711
05:00+1вюв1191100 0.0 101610
08:00+8всв1160100 0.0 1013504
11:00+13юв1237100 0.0 10121787
14:00+13ююв2237100 0.0 10102023
17:00+11ю2247100 0.0 10091341
20:00+7ююз1180100 0.1 101150
30 мая, пн
пн3023:00+5з1197100 1.0 101275
02:00+5зсз1198100 1.5 101193
05:00+5зсз1198100 0.2 101193
08:00+6сз009292 0.3 1012260
11:00+12зюз235674 0.1 10111437
14:00+15з36365 0.1 10112079
17:00+14з45385 0.0 10121886
20:00+9зюз116934 0.0 101416
31 мая, вт
вт3123:00+6зсз0181100 0.0 101711
02:00+5с01851 0.0 101912
05:00+4вюв11843 0.0 102010
08:00+12ю11522 0.0 1018685
11:00+16юз23375 0.0 10181955
14:00+18ююз33345 0.0 10172190
17:00+17ююз3339100 0.0 10161856
20:00+11ю227178 0.0 101726
1 июня, ср
ср123:00+8юв2278100 0.0 101833
02:00+8юв2276100 0.0 101742
05:00+8юв1199100 8.2 101760
08:00+10сз129520 8.6 1017252
11:00+16зсз35495 0.1 10171566
14:00+17зсз35435 0.1 10171747
17:00+17зсз25425 0.0 10171696
20:00+12юз117196 0.0 101811
2 июня, чт
чт223:00+10ююз2278100 0.2 101923
02:00+10ю2397100 2.8 101963
05:00+11ю119492 0.1 101823
08:00+13зюз2389100 0.4 1019240
11:00+17зсз2558100 0.7 10191502
14:00+18з474729 0.9 10192110
17:00+13ю12782 0.9 1020398
20:00+11ссз11710 0.9 102112